Total_Precipitation_Accumulation
0.01 0.04 0.13 0.19 0.21 0.14 0.09 0.08 0.06 0.07 0.08 0.10 0.10 0.09 0.08 0.07 0.06 0.06 0.07 0.09 0.14 0.20 0.26 0.31 0.40 0.44 0.41 0.32 0.22 0.11 0.06 0.04 0.03 0.02 0.03 0.04 0.06 0.08 0.08 0.08 0.09 0.14 0.17
0.01 0.03 0.10 0.18 0.20 0.14 0.11 0.08 0.06 0.05 0.06 0.08 0.09 0.10 0.09 0.08 0.07 0.08 0.11 0.13 0.17 0.22 0.27 0.34 0.41 0.40 0.35 0.28 0.15 0.07 0.03 0.01 0.01 0.00 0.00 0.01 0.03 0.06 0.06 0.06 0.09 0.17 0.23
0.01 0.03 0.08 0.16 0.18 0.14 0.11 0.07 0.04 0.04 0.05 0.06 0.09 0.09 0.09 0.08 0.08 0.11 0.14 0.15 0.18 0.21 0.24 0.29 0.30 0.26 0.24 0.19 0.09 0.04 0.02 0.01 0.01 0.01 0.02 0.03 0.05 0.08 0.09 0.08 0.12 0.17 0.21
0.00 0.02 0.06 0.12 0.15 0.13 0.10 0.05 0.03 0.03 0.05 0.06 0.08 0.09 0.10 0.09 0.10 0.13 0.13 0.14 0.15 0.18 0.20 0.17 0.12 0.11 0.12 0.10 0.06 0.03 0.02 0.01 0.01 0.02 0.04 0.06 0.08 0.15 0.15 0.13 0.14 0.14 0.15
0.01 0.02 0.06 0.10 0.12 0.11 0.08 0.05 0.04 0.04 0.05 0.06 0.07 0.09 0.10 0.09 0.10 0.11 0.11 0.10 0.10 0.11 0.09 0.06 0.05 0.04 0.04 0.04 0.04 0.02 0.02 0.01 0.01 0.02 0.04 0.07 0.12 0.22 0.20 0.17 0.16 0.17 0.16
0.01 0.03 0.08 0.10 0.11 0.10 0.07 0.05 0.04 0.05 0.05 0.05 0.05 0.06 0.09 0.10 0.09 0.08 0.07 0.05 0.05 0.04 0.04 0.03 0.03 0.03 0.02 0.01 0.01 0.01 0.01 0.01 0.01 0.02 0.04 0.06 0.11 0.23 0.20 0.16 0.16 0.18 0.18
0.02 0.04 0.09 0.12 0.11 0.08 0.06 0.05 0.05 0.05 0.05 0.04 0.04 0.05 0.07 0.09 0.08 0.05 0.03 0.03 0.02 0.03 0.03 0.03 0.02 0.01 0.01 0.01 0.01 0.01 0.01 0.01 0.01 0.02 0.04 0.07 0.13 0.22 0.19 0.14 0.14 0.15 0.15
0.03 0.06 0.12 0.15 0.11 0.08 0.07 0.05 0.05 0.05 0.04 0.04 0.04 0.05 0.06 0.07 0.06 0.04 0.03 0.03 0.03 0.03 0.03 0.03 0.02 0.01 0.01 0.01 0.01 0.01 0.01 0.01 0.01 0.02 0.03 0.04 0.08 0.12 0.10 0.09 0.09 0.11 0.11
0.06 0.09 0.14 0.18 0.14 0.10 0.07 0.06 0.05 0.05 0.04 0.04 0.04 0.04 0.04 0.03 0.03 0.03 0.03 0.03 0.03 0.03 0.02 0.03 0.03 0.02 0.02 0.01 0.01 0.01 0.00 0.00 0.01 0.01 0.02 0.02 0.04 0.06 0.06 0.09 0.10 0.12 0.13
0.14 0.14 0.14 0.17 0.14 0.11 0.09 0.07 0.05 0.04 0.03 0.03 0.03 0.02 0.01 0.01 0.02 0.02 0.01 0.02 0.02 0.02 0.02 0.02 0.03 0.02 0.02 0.01 0.01 0.00 0.00 0.01 0.01 0.01 0.01 0.01 0.02 0.03 0.05 0.08 0.09 0.11 0.13
0.28 0.20 0.17 0.15 0.13 0.10 0.09 0.07 0.05 0.04 0.03 0.02 0.02 0.01 0.01 0.01 0.01 0.01 0.01 0.01 0.01 0.01 0.01 0.01 0.02 0.02 0.01 0.01 0.00 0.00 0.00 0.01 0.00 0.00 0.01 0.01 0.02 0.03 0.05 0.07 0.08 0.10 0.11
0.31 0.27 0.21 0.16 0.12 0.09 0.09 0.07 0.06 0.04 0.03 0.02 0.01 0.01 0.01 0.01 0.01 0.00 0.00 0.00 0.01 0.01 0.01 0.01 0.01 0.01 0.00 0.00 0.00 0.00 0.00 0.00 0.00 0.00 0.01 0.01 0.02 0.03 0.04 0.05 0.06 0.07 0.07
0.28 0.29 0.28 0.22 0.14 0.09 0.08 0.06 0.05 0.04 0.03 0.02 0.01 0.01 0.01 0.01 0.00 0.00 0.00 0.00 0.00 0.00 0.00 0.00 0.00 0.00 0.00 0.00 0.00 0.00 0.00 0.00 0.00 0.00 0.00 0.00 0.01 0.02 0.03 0.04 0.05 0.05 0.06
0.32 0.27 0.30 0.29 0.20 0.12 0.08 0.05 0.05 0.04 0.03 0.02 0.01 0.01 0.01 0.01 0.00 0.00 0.00 0.00 0.00 0.00 0.00 0.00 0.00 0.00 0.00 0.00 0.00 0.00 0.00 0.00 0.00 0.00 0.00 0.00 0.00 0.01 0.02 0.03 0.04 0.05 0.06
0.42 0.34 0.36 0.33 0.25 0.18 0.11 0.07 0.04 0.04 0.03 0.03 0.02 0.01 0.01 0.01 0.00 0.00 0.00 0.00 0.00 0.00 0.00 0.00 0.00 0.00 0.00 0.00 0.00 0.00 0.00 0.00 0.00 0.00 0.00 0.00 0.00 0.00 0.01 0.02 0.03 0.04 0.07
0.52 0.49 0.48 0.45 0.35 0.25 0.16 0.10 0.05 0.04 0.03 0.02 0.02 0.02 0.01 0.01 0.01 0.00 0.00 0.00 0.00 0.00 0.00 0.00 0.00 0.00 0.00 0.00 0.00 0.00 0.00 0.00 0.00 0.00 0.00 0.00 0.00 0.00 0.00 0.01 0.02 0.04 0.06
0.54 0.58 0.59 0.59 0.52 0.38 0.25 0.20 0.13 0.10 0.09 0.06 0.04 0.02 0.02 0.02 0.01 0.01 0.00 0.00 0.00 0.00 0.00 0.00 0.00 0.00 0.00 0.00 0.00 0.00 0.00 0.00 0.00 0.00 0.00 0.00 0.00 0.00 0.00 0.01 0.02 0.04 0.05
0.64 0.61 0.63 0.69 0.63 0.56 0.45 0.35 0.27 0.21 0.18 0.13 0.09 0.05 0.04 0.03 0.02 0.01 0.01 0.00 0.00 0.00 0.00 0.00 0.00 0.00 0.00 0.00 0.00 0.00 0.00 0.00 0.00 0.00 0.00 0.00 0.00 0.00 0.00 0.00 0.01 0.02 0.04
0.65 0.69 0.69 0.69 0.73 0.75 0.77 0.69 0.52 0.42 0.35 0.30 0.23 0.13 0.07 0.05 0.04 0.03 0.02 0.02 0.01 0.01 0.00 0.00 0.00 0.00 0.00 0.00 0.00 0.00 0.00 0.00 0.00 0.00 0.00 0.00 0.00 0.00 0.00 0.00 0.01 0.02 0.03
0.67 0.76 0.78 0.81 0.89 1.02 1.10 1.05 0.89 0.69 0.55 0.44 0.34 0.27 0.20 0.14 0.10 0.07 0.05 0.04 0.03 0.02 0.02 0.02 0.01 0.01 0.01 0.01 0.01 0.01 0.00 0.00 0.00 0.00 0.00 0.00 0.00 0.00 0.00 0.01 0.01 0.01 0.01
0.62 0.75 0.81 0.80 0.89 1.06 1.00 0.89 0.81 0.73 0.67 0.57 0.48 0.44 0.36 0.27 0.20 0.13 0.10 0.08 0.06 0.05 0.04 0.03 0.03 0.02 0.02 0.02 0.02 0.01 0.00 0.00 0.00 0.00 0.00 0.00 0.01 0.00 0.00 0.01 0.01 0.01 0.02
0.46 0.63 0.74 0.82 0.92 0.98 0.92 0.90 0.96 1.06 1.03 0.94 0.84 0.63 0.48 0.39 0.31 0.24 0.17 0.13 0.11 0.09 0.08 0.07 0.07 0.06 0.04 0.04 0.05 0.07 0.03 0.01 0.00 0.01 0.01 0.01 0.01 0.01 0.01 0.01 0.02 0.02 0.03
0.30 0.42 0.56 0.70 0.81 0.91 1.01 1.18 1.23 1.22 1.08 0.90 0.76 0.69 0.64 0.62 0.54 0.44 0.39 0.30 0.24 0.18 0.14 0.14 0.14 0.12 0.11 0.09 0.09 0.14 0.13 0.07 0.04 0.02 0.02 0.02 0.03 0.03 0.03 0.04 0.04 0.04 0.04
0.21 0.29 0.39 0.54 0.66 0.76 0.86 0.94 0.97 0.93 0.82 0.73 0.75 0.79 0.83 0.79 0.72 0.67 0.58 0.48 0.39 0.33 0.27 0.27 0.25 0.23 0.22 0.20 0.18 0.17 0.19 0.19 0.20 0.13 0.06 0.05 0.05 0.05 0.06 0.06 0.06 0.06 0.07
0.16 0.23 0.32 0.42 0.50 0.59 0.68 0.73 0.84 0.86 0.83 0.85 0.83 0.80 0.76 0.74 0.72 0.71 0.65 0.59 0.49 0.45 0.43 0.43 0.40 0.39 0.37 0.35 0.33 0.31 0.31 0.30 0.31 0.35 0.22 0.11 0.10 0.10 0.11 0.11 0.11 0.12 0.13
0.11 0.16 0.24 0.35 0.45 0.51 0.58 0.63 0.69 0.72 0.75 0.74 0.73 0.74 0.73 0.73 0.70 0.67 0.65 0.62 0.60 0.55 0.52 0.52 0.55 0.53 0.51 0.49 0.47 0.46 0.49 0.48 0.44 0.50 0.47 0.31 0.26 0.22 0.21 0.22 0.22 0.22 0.22